Change the Weather History Date:

Saturday, July 20, 2013

  Actual Average Record
Temperature  
Mean Temperature 82 °F -  
Max Temperature 93 °F 96 °F 109 °F (2012)
Min Temperature 72 °F 70 °F 58 °F (1984)
Cooling Degree Days 18    
Growing Degree Days 32 (Base 50)    
Moisture  
Dew Point 70 °F    
Average Humidity 72    
Maximum Humidity 94    
Minimum Humidity 41    
Precipitation  
Precipitation 0.00 in - - ()
Sea Level Pressure  
Sea Level Pressure 29.94 in    
Wind  
Wind Speed 2 mph (WNW)    
Max Wind Speed 9 mph    
Max Gust Speed 16 mph    
Visibility 10 miles    
Events Thunderstorm    
Averages and records for this station are not official NWS values.
T = Trace of Precipitation, MM = Missing Value Source: NWS Daily Summary

Daily Weather History Graph

Daily Weather History Graph

Search for Another Location

Airport or City:

Trip Planner

Search our weather history database for the weather conditions in past years. The results will help you decide how hot, cold, wet, or windy it might be!

Date:

Astronomy

Jul. 20, 2013 Rise Set
Actual Time 6:14 AM CDT 8:22 PM CDT
Civil Twilight 5:46 AM CDT 8:50 PM CDT
Nautical Twilight 5:11 AM CDT 9:25 PM CDT
Astronomical Twilight 4:34 AM CDT 10:02 PM CDT
Moon 6:27 PM CDT (7/20) 3:54 AM CDT (7/20)
Length of Visible Light 15h 04m
Length of Day
14h 08m
Waxing Gibbous, 94% of the Moon is Illuminated
Jul 20
Waxing Gibbous
Jul 22
Full
Jul 29
Last Quarter
Aug 6
New
Aug 14
First Quarter

Hourly Weather History & Observations

Time (CDT) Temp. Heat Index Dew Point Humidity Pressure Visibility Wind Dir Wind Speed Gust Speed Precip Events Conditions
12:53 AM 73.9 °F - 71.1 °F 91% 29.96 in 10.0 mi Calm Calm - N/A   Overcast
1:06 AM 73.4 °F - 71.6 °F 94% 29.98 in 10.0 mi Calm Calm - N/A   Mostly Cloudy
1:53 AM 73.9 °F - 72.0 °F 93% 29.96 in 9.0 mi Calm Calm - N/A   Scattered Clouds
2:03 AM 73.4 °F - 71.6 °F 94% 29.98 in 8.0 mi Calm Calm - N/A   Mostly Cloudy
2:15 AM 73.4 °F - 71.6 °F 94% 29.98 in 7.0 mi Calm Calm - N/A   Scattered Clouds
2:53 AM 73.0 °F - 71.1 °F 93% 29.96 in 8.0 mi Calm Calm - N/A   Clear
3:53 AM 73.0 °F - 71.1 °F 93% 29.97 in 9.0 mi Calm Calm - N/A   Clear
4:53 AM 72.0 °F - 70.0 °F 93% 29.97 in 9.0 mi West 3.5 mph - N/A   Clear
5:53 AM 72.0 °F - 69.1 °F 91% 29.97 in 10.0 mi Calm Calm - N/A   Scattered Clouds
6:53 AM 72.0 °F - 69.1 °F 91% 29.97 in 10.0 mi NW 4.6 mph - N/A   Clear
7:53 AM 72.0 °F - 69.1 °F 91% 29.98 in 10.0 mi WNW 3.5 mph - N/A   Clear
8:53 AM 78.1 °F - 71.1 °F 79% 29.97 in 10.0 mi West 4.6 mph - N/A   Scattered Clouds
9:53 AM 82.0 °F 86.3 °F 71.1 °F 69% 29.97 in 10.0 mi Variable 3.5 mph - N/A   Clear
10:53 AM 84.9 °F 89.4 °F 70.0 °F 61% 29.97 in 10.0 mi Calm Calm - N/A   Partly Cloudy
11:53 AM 90.0 °F 93.6 °F 68.0 °F 48% 29.96 in 10.0 mi Variable 6.9 mph - N/A   Scattered Clouds
12:53 PM 91.0 °F 94.3 °F 66.9 °F 45% 29.94 in 10.0 mi WSW 8.1 mph - N/A   Partly Cloudy
1:44 PM 93.2 °F 96.2 °F 66.2 °F 41% 29.95 in 10.0 mi Variable 5.8 mph - N/A Thunderstorm Partly Cloudy
1:53 PM 93.0 °F 95.9 °F 66.0 °F 41% 29.93 in 10.0 mi SSW 6.9 mph - N/A Thunderstorm Partly Cloudy
2:53 PM 88.0 °F 90.7 °F 66.9 °F 49% 29.92 in 10.0 mi SSE 9.2 mph 16.1 mph N/A   Clear
3:05 PM 86.0 °F 88.2 °F 66.2 °F 51% 29.93 in 10.0 mi Variable 4.6 mph - N/A Thunderstorm Thunderstorm
3:53 PM 84.9 °F 88.8 °F 69.1 °F 59% 29.89 in 10.0 mi Calm Calm - N/A   Clear
4:53 PM 90.0 °F 95.4 °F 70.0 °F 52% 29.88 in 10.0 mi NNW 3.5 mph - N/A   Clear
5:53 PM 87.1 °F 92.8 °F 71.1 °F 59% 29.86 in 10.0 mi Variable 5.8 mph - N/A   Clear
6:12 PM 86.0 °F 91.8 °F 71.6 °F 62% 29.87 in 10.0 mi NW 4.6 mph - N/A Thunderstorm Clear
6:34 PM 86.0 °F 91.8 °F 71.6 °F 62% 29.88 in 10.0 mi WNW 4.6 mph - N/A   Clear
6:53 PM 86.0 °F 91.5 °F 71.1 °F 61% 29.87 in 10.0 mi West 5.8 mph - N/A   Clear
7:53 PM 82.9 °F 88.0 °F 72.0 °F 69% 29.88 in 10.0 mi WNW 3.5 mph - N/A   Clear
8:53 PM 82.9 °F 87.5 °F 71.1 °F 67% 29.89 in 10.0 mi Calm Calm - N/A   Clear
9:53 PM 79.0 °F - 72.0 °F 79% 29.91 in 10.0 mi Calm Calm - N/A   Partly Cloudy
10:53 PM 79.0 °F - 73.0 °F 82% 29.91 in 10.0 mi Calm Calm - N/A   Clear
11:53 PM 79.0 °F - 73.0 °F 82% 29.93 in 10.0 mi ENE 3.5 mph - N/A   Mostly Cloudy